Total_Precipitation_Accumulation
0.02 0.03 0.06 0.04 0.02 0.04 0.07 0.06 0.06 0.06 0.08 0.10 0.09 0.07 0.10 0.11 0.09 0.05 0.03 0.03 0.04 0.06 0.09 0.10 0.13 0.13 0.13 0.14 0.13 0.11 0.10 0.11 0.14 0.16 0.18 0.19 0.23 0.32 0.46 0.52 0.50 0.38 0.29
0.01 0.02 0.06 0.05 0.03 0.03 0.06 0.07 0.07 0.08 0.07 0.07 0.08 0.11 0.14 0.13 0.11 0.06 0.04 0.04 0.04 0.05 0.07 0.08 0.08 0.09 0.11 0.11 0.09 0.07 0.07 0.09 0.12 0.17 0.17 0.14 0.23 0.36 0.44 0.41 0.51 0.36 0.25
0.01 0.01 0.03 0.05 0.04 0.03 0.03 0.05 0.09 0.10 0.08 0.06 0.09 0.12 0.13 0.12 0.12 0.10 0.09 0.05 0.04 0.04 0.05 0.05 0.06 0.07 0.06 0.05 0.05 0.05 0.05 0.07 0.10 0.18 0.34 0.30 0.18 0.34 0.40 0.38 0.33 0.23 0.18
0.01 0.01 0.01 0.03 0.03 0.03 0.03 0.04 0.09 0.10 0.07 0.07 0.14 0.14 0.10 0.12 0.13 0.11 0.11 0.07 0.07 0.05 0.04 0.05 0.05 0.05 0.04 0.02 0.02 0.04 0.04 0.07 0.13 0.28 0.55 0.40 0.25 0.27 0.37 0.32 0.22 0.18 0.18
0.01 0.01 0.01 0.03 0.03 0.03 0.03 0.04 0.07 0.09 0.07 0.08 0.11 0.12 0.09 0.12 0.14 0.12 0.10 0.10 0.12 0.08 0.04 0.05 0.05 0.04 0.04 0.03 0.03 0.04 0.05 0.09 0.16 0.32 0.39 0.37 0.46 0.33 0.32 0.32 0.30 0.26 0.25
0.01 0.01 0.02 0.04 0.04 0.04 0.04 0.05 0.06 0.08 0.08 0.06 0.07 0.09 0.08 0.14 0.19 0.17 0.13 0.15 0.17 0.15 0.09 0.05 0.05 0.05 0.04 0.03 0.03 0.04 0.06 0.13 0.18 0.22 0.25 0.31 0.49 0.43 0.35 0.46 0.56 0.51 0.42
0.01 0.02 0.03 0.04 0.05 0.05 0.05 0.05 0.06 0.07 0.07 0.05 0.05 0.05 0.05 0.09 0.14 0.15 0.13 0.15 0.15 0.14 0.12 0.10 0.07 0.06 0.06 0.06 0.05 0.07 0.11 0.18 0.22 0.21 0.23 0.32 0.46 0.34 0.40 0.63 0.86 0.78 0.61
0.02 0.02 0.03 0.06 0.06 0.06 0.06 0.06 0.06 0.06 0.06 0.05 0.04 0.04 0.05 0.06 0.09 0.10 0.12 0.11 0.11 0.09 0.10 0.11 0.11 0.10 0.09 0.08 0.08 0.10 0.13 0.14 0.17 0.22 0.26 0.34 0.30 0.27 0.48 0.74 0.92 0.86 0.72
0.04 0.03 0.05 0.06 0.06 0.06 0.06 0.06 0.06 0.06 0.05 0.05 0.05 0.05 0.06 0.06 0.07 0.09 0.12 0.12 0.11 0.12 0.14 0.14 0.13 0.11 0.11 0.10 0.09 0.11 0.14 0.16 0.21 0.29 0.33 0.48 0.45 0.47 0.70 0.86 0.90 0.89 0.83
0.10 0.07 0.08 0.08 0.08 0.08 0.07 0.08 0.08 0.08 0.08 0.09 0.08 0.08 0.08 0.09 0.10 0.13 0.15 0.15 0.15 0.18 0.19 0.21 0.22 0.21 0.20 0.17 0.17 0.20 0.21 0.19 0.16 0.22 0.43 0.46 0.51 0.70 0.92 1.00 1.05 1.02 1.02
0.25 0.17 0.14 0.12 0.12 0.12 0.11 0.10 0.13 0.13 0.13 0.13 0.14 0.13 0.13 0.13 0.19 0.27 0.24 0.29 0.32 0.36 0.38 0.41 0.43 0.43 0.38 0.30 0.33 0.43 0.36 0.27 0.23 0.29 0.45 0.50 0.57 0.85 1.10 1.16 1.21 1.24 1.23
0.45 0.35 0.26 0.24 0.19 0.18 0.19 0.25 0.25 0.24 0.27 0.27 0.35 0.37 0.33 0.37 0.38 0.31 0.42 0.60 0.68 0.82 0.85 0.89 0.94 0.80 0.65 0.54 0.92 1.13 0.44 0.40 0.44 0.43 0.65 0.69 0.81 1.15 1.41 1.31 1.23 1.29 1.27
0.63 0.41 0.31 0.34 0.37 0.37 0.40 0.37 0.36 0.39 0.49 0.51 0.52 0.58 0.68 0.63 0.51 0.48 0.59 0.81 0.96 1.13 1.24 1.57 1.68 1.30 1.25 1.25 1.34 1.21 0.62 0.50 0.51 0.54 0.83 0.98 1.08 1.45 1.78 1.58 1.37 1.32 1.31
0.69 0.51 0.47 0.49 0.51 0.54 0.55 0.53 0.55 0.56 0.63 0.67 0.77 0.87 1.01 0.90 0.79 0.80 0.96 1.10 1.29 1.42 1.68 1.86 2.08 1.88 1.67 1.48 1.41 1.24 1.02 0.91 0.76 0.93 1.17 1.04 1.18 1.50 1.81 1.75 1.53 1.39 1.33
0.86 0.72 0.69 0.70 0.76 0.72 0.70 0.69 0.70 0.69 0.71 0.87 1.02 1.13 1.23 1.27 1.32 1.38 1.32 1.47 1.55 1.69 1.87 2.16 2.21 2.33 2.34 2.25 1.91 1.65 1.54 1.38 1.17 1.35 1.58 1.46 1.28 1.36 1.63 1.86 1.75 1.55 1.42
1.12 1.03 0.97 0.92 0.87 0.87 0.88 0.90 0.94 0.98 1.08 1.19 1.36 1.44 1.62 1.79 1.87 2.01 1.99 2.00 1.86 1.86 2.03 2.31 2.47 2.84 2.72 2.56 2.07 1.87 1.70 1.63 1.34 1.35 1.58 1.71 1.39 1.27 1.39 1.72 1.89 1.78 1.61
1.32 1.27 1.32 1.30 1.28 1.39 1.53 1.52 1.47 1.57 1.66 1.73 1.83 1.89 2.01 2.09 2.20 2.34 2.26 2.17 2.16 2.17 2.28 2.43 2.56 2.69 2.46 2.37 2.18 2.04 1.80 1.60 1.35 1.33 1.44 1.57 1.48 1.28 1.27 1.43 1.70 1.80 1.74
1.35 1.45 1.58 1.69 1.88 2.06 2.26 2.30 2.19 2.17 2.16 2.15 2.11 2.16 2.22 2.29 2.42 2.63 2.41 2.26 2.53 2.43 2.53 2.78 2.78 2.75 2.55 2.45 2.29 2.07 1.87 1.61 1.26 1.24 1.26 1.37 1.53 1.30 1.23 1.34 1.48 1.54 1.69
1.52 1.78 1.94 2.16 2.39 2.58 2.69 2.75 2.81 2.74 2.58 2.36 2.31 2.32 2.22 2.24 2.34 2.56 2.34 2.34 2.51 2.72 2.74 2.57 2.93 2.87 2.69 2.56 2.19 1.89 1.63 1.38 1.16 1.07 1.07 1.10 1.25 1.13 1.05 1.15 1.29 1.38 1.65
2.03 2.33 2.63 2.88 2.97 2.84 2.78 2.80 2.72 2.57 2.44 2.36 2.34 2.25 2.13 2.17 2.23 2.52 2.33 2.28 2.43 2.63 2.57 2.57 2.78 2.81 2.57 2.55 2.11 1.64 1.42 1.14 1.05 1.02 0.94 0.95 0.97 0.86 0.82 0.99 1.33 1.18 1.27
2.54 2.78 3.04 3.36 3.51 3.34 3.35 3.33 3.25 2.92 2.78 2.53 2.27 2.00 1.92 1.91 2.08 2.39 2.18 2.34 2.35 2.35 2.36 2.42 2.66 2.67 2.44 2.56 2.30 1.75 1.29 0.97 0.86 0.85 0.91 0.90 0.82 0.88 1.05 1.21 1.36 1.35 1.25
2.35 2.77 3.11 3.10 3.04 2.90 3.05 3.26 3.42 3.37 2.99 2.47 2.23 2.10 1.88 1.81 1.93 2.10 2.14 2.06 2.13 2.18 2.22 2.28 2.47 2.30 2.08 2.33 2.34 2.16 1.50 1.09 0.82 0.71 0.94 0.97 0.92 1.04 1.11 1.15 1.34 1.51 1.50
1.88 2.22 2.34 2.20 2.16 2.08 2.14 2.36 2.54 2.79 2.64 2.35 2.09 1.95 1.84 1.80 1.78 1.83 1.89 1.91 1.94 1.92 1.95 2.11 2.12 2.06 1.90 1.96 2.17 2.31 1.86 1.35 1.05 0.74 0.70 0.80 0.97 1.05 1.06 1.19 1.19 1.29 1.35
1.23 1.22 1.28 1.39 1.45 1.52 1.62 1.84 2.09 2.34 2.30 2.22 2.16 1.90 1.70 1.56 1.51 1.52 1.53 1.58 1.65 1.69 1.79 1.72 1.76 1.93 1.94 1.81 1.92 1.98 1.90 1.80 1.60 1.04 0.76 0.77 0.98 1.03 1.04 1.05 1.14 1.28 1.32
1.02 1.03 1.02 1.13 1.28 1.40 1.47 1.61 1.81 2.15 2.13 1.95 1.81 1.66 1.57 1.48 1.41 1.35 1.38 1.39 1.38 1.42 1.52 1.57 1.75 1.80 1.85 1.81 1.77 1.78 1.87 1.86 1.70 1.42 1.01 0.93 0.96 0.90 0.96 1.02 1.13 1.31 1.46
0.84 0.93 0.98 1.00 1.09 1.15 1.21 1.31 1.36 1.52 1.58 1.48 1.41 1.36 1.29 1.21 1.19 1.23 1.23 1.23 1.25 1.29 1.41 1.46 1.50 1.53 1.58 1.62 1.59 1.61 1.70 1.65 1.57 1.60 1.30 1.17 1.14 0.99 1.03 1.08 1.11 1.23 1.31